Location: Coopersdale
(40.3556°N, 78.9372°W)
Time: 01:45:18
(UTC+00:00)

Transit 4A - Pass Details

Date: 28 January 2021
Orbit: 867 x 978 km, 66.8° (Epoch: 07 March)

Event Time Altitude Azimuth Distance (km) Brightness Sun altitude
Rises 01:02:40 0° 254° (WSW) 3,670 12.1 -29.4°
Reaches altitude 10° 01:05:56 10° 270° (W) 2,726 11.3 -30.0°
Maximum altitude 01:10:37 21° 317° (NW) 2,048 10.1 -30.9°
Enters shadow 01:15:00 11° 3° (N) 2,649 10.2 -31.7°
Drops below altitude 10° 01:15:16 10° 5° (N) 2,714 - -31.8°
Sets 01:18:33 0° 21° (NNE) 3,649 - -32.4°
